Location: Atherton
(17.2661°S, 145.4859°E)
Time: 11:16:59
(UTC+10:00)

Vanguard 1 - Pass Details

Date: 26 June 2025
Orbit: 649 x 3822 km, 34.2° (Epoch: 05 July)

Event Time Altitude Azimuth Distance (km) Brightness Sun altitude
Rises 01:56:43 0° 235° (SW) 3,519 - -66.7°
Reaches altitude 10° 01:59:35 10° 231° (SW) 2,331 - -66.1°
Maximum altitude 02:04:31 58° 151° (SSE) 767 - -65.0°
Drops below altitude 10° 02:08:53 10° 71° (ENE) 2,072 - -64.0°
Sets 02:11:17 0° 67° (ENE) 3,083 - -63.4°
